Time,TemperatureF,DewpointF,PressureIn,WindDirection,WindDirectionDegrees,WindSpeedMPH,WindSpeedGustMPH,Humidity,HourlyPrecipIn,Conditions,Clouds,dailyrainin,SoftwareType,DateUTC
2013-05-06 00:02:00,50.0,44.0,30.00,WSW,251,0.0,0.0,80,0.00,,,0.00,,2013-05-06 05:02:00,
2013-05-06 00:12:00,50.0,44.0,30.00,WSW,251,0.0,0.0,80,0.00,,,0.00,,2013-05-06 05:12:00,
2013-05-06 00:22:00,50.0,44.0,30.00,WSW,251,0.0,0.0,81,0.00,,,0.00,,2013-05-06 05:22:00,
2013-05-06 00:32:00,49.0,44.0,30.00,WSW,251,0.0,0.0,83,0.00,,,0.00,,2013-05-06 05:32:00,
2013-05-06 00:42:00,49.0,44.0,30.00,WSW,251,0.0,0.0,83,0.00,,,0.00,,2013-05-06 05:42:00,
2013-05-06 00:52:00,49.0,44.0,30.00,WSW,251,0.0,0.0,84,0.00,,,0.00,,2013-05-06 05:52:00,
2013-05-06 01:02:00,49.0,45.0,30.00,WSW,251,0.0,1.0,85,0.00,,,0.00,,2013-05-06 06:02:00,
2013-05-06 01:12:00,49.0,45.0,30.00,WSW,251,0.0,1.0,85,0.00,,,0.00,,2013-05-06 06:12:00,
2013-05-06 01:21:00,49.0,45.0,30.00,WSW,251,0.0,1.0,86,0.00,,,0.00,,2013-05-06 06:21:00,
2013-05-06 01:32:00,49.0,45.0,29.98,WSW,251,0.0,0.0,87,0.00,,,0.00,,2013-05-06 06:32:00,
2013-05-06 01:42:00,49.0,45.0,29.98,WSW,251,0.0,0.0,87,0.00,,,0.00,,2013-05-06 06:42:00,
2013-05-06 01:52:00,49.0,45.0,29.98,WSW,251,0.0,2.0,86,0.00,,,0.00,,2013-05-06 06:52:00,
2013-05-06 02:01:00,50.0,45.0,29.98,WSW,251,0.0,1.0,84,0.00,,,0.00,,2013-05-06 07:01:00,
2013-05-06 02:11:00,50.0,45.0,29.98,WSW,251,0.0,1.0,84,0.00,,,0.00,,2013-05-06 07:11:00,
2013-05-06 02:22:00,50.0,45.0,29.98,WSW,251,0.0,1.0,83,0.00,,,0.00,,2013-05-06 07:22:00,
2013-05-06 02:31:00,50.0,45.0,29.97,WSW,251,0.0,1.0,83,0.00,,,0.00,,2013-05-06 07:31:00,
2013-05-06 02:42:00,50.0,45.0,29.97,WSW,251,0.0,1.0,83,0.00,,,0.00,,2013-05-06 07:42:00,
2013-05-06 02:52:00,50.0,45.0,29.97,WSW,251,0.0,2.0,84,0.00,,,0.00,,2013-05-06 07:52:00,
2013-05-06 03:02:00,50.0,45.0,29.97,WSW,251,0.0,0.0,83,0.00,,,0.00,,2013-05-06 08:02:00,
2013-05-06 03:12:00,50.0,45.0,29.97,WSW,251,0.0,0.0,83,0.00,,,0.00,,2013-05-06 08:12:00,
2013-05-06 03:22:00,50.0,45.0,29.97,WSW,251,0.0,1.0,84,0.00,,,0.00,,2013-05-06 08:22:00,
2013-05-06 03:31:00,49.0,44.0,29.97,WSW,251,0.0,1.0,84,0.00,,,0.00,,2013-05-06 08:31:00,
2013-05-06 03:41:00,49.0,44.0,29.97,WSW,251,0.0,1.0,84,0.00,,,0.00,,2013-05-06 08:41:00,
2013-05-06 03:52:00,49.0,45.0,29.97,WSW,251,0.0,2.0,85,0.00,,,0.00,,2013-05-06 08:52:00,
2013-05-06 04:01:00,50.0,45.0,29.97,West,275,0.0,4.0,84,0.00,,,0.00,,2013-05-06 09:01:00,
2013-05-06 04:11:00,50.0,45.0,29.97,West,275,0.0,4.0,84,0.00,,,0.00,,2013-05-06 09:11:00,
2013-05-06 04:22:00,50.0,45.0,29.97,West,275,0.0,2.0,84,0.00,,,0.00,,2013-05-06 09:22:00,
2013-05-06 04:33:00,50.0,45.0,29.97,West,269,0.0,5.0,84,0.00,,,0.00,,2013-05-06 09:33:00,
2013-05-06 04:42:00,50.0,45.0,29.97,West,269,0.0,5.0,84,0.00,,,0.00,,2013-05-06 09:42:00,
2013-05-06 04:53:00,50.0,46.0,29.97,WSW,244,0.0,3.0,85,0.00,,,0.00,,2013-05-06 09:53:00,
2013-05-06 05:02:00,50.0,45.0,29.97,WSW,244,0.0,1.0,84,0.00,,,0.00,,2013-05-06 10:02:00,
2013-05-06 05:12:00,50.0,45.0,29.97,WSW,244,0.0,1.0,84,0.00,,,0.00,,2013-05-06 10:12:00,
2013-05-06 05:22:00,50.0,45.0,29.97,WSW,252,1.0,4.0,84,0.00,,,0.00,,2013-05-06 10:22:00,
2013-05-06 05:33:00,50.0,45.0,29.97,West,270,1.0,3.0,84,0.00,,,0.00,,2013-05-06 10:33:00,
2013-05-06 05:41:00,50.0,45.0,29.97,West,270,1.0,3.0,84,0.00,,,0.00,,2013-05-06 10:41:00,
2013-05-06 05:52:00,50.0,46.0,29.97,West,270,1.0,3.0,85,0.00,,,0.00,,2013-05-06 10:52:00,
2013-05-06 06:02:00,50.0,46.0,29.98,West,270,0.0,3.0,86,0.00,,,0.00,,2013-05-06 11:02:00,
2013-05-06 06:12:00,50.0,46.0,29.98,West,270,0.0,3.0,86,0.00,,,0.00,,2013-05-06 11:12:00,
2013-05-06 06:22:00,49.0,45.0,29.98,West,271,1.0,4.0,86,0.00,,,0.00,,2013-05-06 11:22:00,
2013-05-06 06:31:00,49.0,45.0,29.98,WSW,242,0.0,2.0,86,0.00,,,0.00,,2013-05-06 11:31:00,
2013-05-06 06:42:00,49.0,45.0,29.98,WSW,242,0.0,2.0,86,0.00,,,0.00,,2013-05-06 11:42:00,
2013-05-06 06:52:00,50.0,46.0,29.98,WSW,242,0.0,2.0,86,0.00,,,0.00,,2013-05-06 11:52:00,
2013-05-06 07:01:00,51.0,46.0,29.99,WSW,243,1.0,3.0,84,0.00,,,0.00,,2013-05-06 12:01:00,
2013-05-06 07:12:00,51.0,46.0,29.99,WSW,243,1.0,3.0,84,0.00,,,0.00,,2013-05-06 12:12:00,
2013-05-06 07:21:00,51.0,46.0,29.99,WSW,245,1.0,4.0,83,0.00,,,0.00,,2013-05-06 12:21:00,
2013-05-06 07:32:00,52.0,46.0,30.00,West,267,0.0,4.0,80,0.00,,,0.00,,2013-05-06 12:32:00,
2013-05-06 07:41:00,52.0,46.0,30.00,West,267,0.0,4.0,80,0.00,,,0.00,,2013-05-06 12:41:00,
2013-05-06 07:51:00,53.0,47.0,30.00,West,273,1.0,3.0,79,0.00,,,0.00,,2013-05-06 12:51:00,
2013-05-06 08:01:00,54.0,46.0,30.00,WSW,250,1.0,7.0,74,0.00,,,0.00,,2013-05-06 13:01:00,
2013-05-06 08:11:00,54.0,46.0,30.00,WSW,250,1.0,7.0,74,0.00,,,0.00,,2013-05-06 13:11:00,
2013-05-06 08:21:00,55.0,47.0,30.00,WSW,252,2.0,5.0,73,0.00,,,0.00,,2013-05-06 13:21:00,
2013-05-06 08:32:00,56.0,46.0,30.01,WSW,238,2.0,7.0,69,0.00,,,0.00,,2013-05-06 13:32:00,
2013-05-06 08:42:00,56.0,46.0,30.01,WSW,238,2.0,7.0,69,0.00,,,0.00,,2013-05-06 13:42:00,
2013-05-06 08:52:00,56.0,46.0,30.01,West,269,0.0,7.0,69,0.00,,,0.00,,2013-05-06 13:52:00,
2013-05-06 09:01:00,58.0,47.0,30.01,WSW,255,2.0,5.0,66,0.00,,,0.00,,2013-05-06 14:01:00,
2013-05-06 09:11:00,58.0,47.0,30.01,WSW,255,2.0,5.0,66,0.00,,,0.00,,2013-05-06 14:11:00,
2013-05-06 09:21:00,58.0,46.0,30.01,WSW,243,2.0,11.0,64,0.00,,,0.00,,2013-05-06 14:21:00,
2013-05-06 09:32:00,60.0,47.0,30.01,West,261,3.0,7.0,62,0.00,,,0.00,,2013-05-06 14:32:00,
2013-05-06 09:42:00,61.0,47.0,30.01,SW,232,3.0,10.0,61,0.00,,,0.00,,2013-05-06 14:42:00,
2013-05-06 09:51:00,61.0,47.0,30.01,SW,232,3.0,10.0,61,0.00,,,0.00,,2013-05-06 14:51:00,
2013-05-06 10:01:00,62.0,47.0,30.01,West,259,2.0,10.0,58,0.00,,,0.00,,2013-05-06 15:01:00,
2013-05-06 10:11:00,62.0,47.0,30.01,West,259,2.0,10.0,58,0.00,,,0.00,,2013-05-06 15:11:00,
2013-05-06 10:21:00,64.0,49.0,30.01,WSW,242,2.0,7.0,58,0.00,,,0.00,,2013-05-06 15:21:00,
2013-05-06 10:33:00,65.0,48.0,30.01,WSW,257,2.0,7.0,54,0.00,,,0.00,,2013-05-06 15:33:00,
2013-05-06 10:42:00,65.0,48.0,30.01,WSW,257,2.0,7.0,54,0.00,,,0.00,,2013-05-06 15:42:00,
2013-05-06 10:53:00,66.0,48.0,30.01,SSW,200,1.0,11.0,53,0.00,,,0.00,,2013-05-06 15:53:00,
2013-05-06 11:03:00,67.0,50.0,30.01,West,270,0.0,6.0,54,0.00,,,0.00,,2013-05-06 16:03:00,
2013-05-06 11:13:00,67.0,50.0,30.01,West,270,0.0,6.0,54,0.00,,,0.00,,2013-05-06 16:13:00,
2013-05-06 11:23:00,68.0,50.0,30.01,WSW,238,4.0,15.0,53,0.00,,,0.00,,2013-05-06 16:23:00,
2013-05-06 11:32:00,69.0,49.0,30.00,West,261,4.0,10.0,49,0.00,,,0.00,,2013-05-06 16:32:00,
2013-05-06 11:41:00,69.0,49.0,30.00,West,261,4.0,10.0,49,0.00,,,0.00,,2013-05-06 16:41:00,
2013-05-06 11:52:00,70.0,49.0,30.00,SSW,192,2.0,9.0,47,0.00,,,0.00,,2013-05-06 16:52:00,
2013-05-06 12:03:00,70.0,51.0,29.98,South,177,2.0,11.0,51,0.00,,,0.00,,2013-05-06 17:03:00,
2013-05-06 12:12:00,70.0,51.0,29.98,South,177,2.0,11.0,51,0.00,,,0.00,,2013-05-06 17:12:00,
2013-05-06 12:23:00,70.0,48.0,29.98,West,269,3.0,13.0,45,0.00,,,0.00,,2013-05-06 17:23:00,
2013-05-06 12:31:00,72.0,50.0,29.98,West,265,1.0,11.0,46,0.00,,,0.00,,2013-05-06 17:31:00,
2013-05-06 12:42:00,72.0,50.0,29.98,West,265,1.0,11.0,46,0.00,,,0.00,,2013-05-06 17:42:00,
2013-05-06 12:52:00,71.0,51.0,29.98,WSW,239,1.0,7.0,50,0.00,,,0.00,,2013-05-06 17:52:00,
2013-05-06 13:01:00,73.0,51.0,29.96,SSW,202,0.0,10.0,46,0.00,,,0.00,,2013-05-06 18:01:00,
2013-05-06 13:12:00,73.0,51.0,29.96,SSW,202,0.0,10.0,46,0.00,,,0.00,,2013-05-06 18:12:00,
2013-05-06 13:21:00,73.0,50.0,29.96,WSW,252,3.0,11.0,44,0.00,,,0.00,,2013-05-06 18:21:00,
2013-05-06 13:31:00,74.0,51.0,29.96,West,262,3.0,9.0,44,0.00,,,0.00,,2013-05-06 18:31:00,
2013-05-06 13:43:00,74.0,51.0,29.96,West,262,3.0,9.0,44,0.00,,,0.00,,2013-05-06 18:43:00,
2013-05-06 13:52:00,74.0,51.0,29.96,West,259,0.0,8.0,44,0.00,,,0.00,,2013-05-06 18:52:00,
2013-05-06 14:01:00,74.0,49.0,29.94,West,269,2.0,6.0,42,0.00,,,0.00,,2013-05-06 19:01:00,
2013-05-06 14:11:00,74.0,49.0,29.94,West,269,2.0,6.0,42,0.00,,,0.00,,2013-05-06 19:11:00,
2013-05-06 14:22:00,73.0,50.0,29.94,SW,217,0.0,7.0,44,0.00,,,0.00,,2013-05-06 19:22:00,
2013-05-06 14:32:00,74.0,50.0,29.94,WSW,249,4.0,7.0,43,0.00,,,0.00,,2013-05-06 19:32:00,
2013-05-06 14:41:00,74.0,50.0,29.94,WSW,249,4.0,7.0,43,0.00,,,0.00,,2013-05-06 19:41:00,
2013-05-06 14:52:00,73.0,51.0,29.94,West,269,3.0,7.0,46,0.00,,,0.00,,2013-05-06 19:52:00,
2013-05-06 15:02:00,71.0,52.0,29.93,WSW,247,3.0,6.0,51,0.00,,,0.00,,2013-05-06 20:02:00,
2013-05-06 15:11:00,71.0,52.0,29.93,WSW,247,3.0,6.0,51,0.00,,,0.00,,2013-05-06 20:11:00,
2013-05-06 15:21:00,71.0,54.0,29.93,West,276,3.0,9.0,54,0.00,,,0.00,,2013-05-06 20:21:00,
2013-05-06 15:32:00,71.0,52.0,29.92,WSW,245,2.0,9.0,52,0.00,,,0.00,,2013-05-06 20:32:00,
2013-05-06 15:42:00,71.0,52.0,29.92,WSW,245,2.0,9.0,52,0.00,,,0.00,,2013-05-06 20:42:00,
2013-05-06 15:52:00,70.0,53.0,29.92,WNW,285,1.0,12.0,54,0.00,,,0.00,,2013-05-06 20:52:00,
2013-05-06 16:01:00,69.0,53.0,29.91,West,261,2.0,10.0,56,0.00,,,0.00,,2013-05-06 21:01:00,
2013-05-06 16:11:00,69.0,53.0,29.91,West,261,2.0,10.0,56,0.00,,,0.00,,2013-05-06 21:11:00,
2013-05-06 16:21:00,69.0,52.0,29.91,West,272,4.0,10.0,55,0.00,,,0.00,,2013-05-06 21:21:00,
2013-05-06 16:32:00,68.0,51.0,29.91,WSW,244,1.0,9.0,55,0.00,,,0.00,,2013-05-06 21:32:00,
2013-05-06 16:42:00,68.0,51.0,29.91,WSW,244,1.0,9.0,55,0.00,,,0.00,,2013-05-06 21:42:00,
2013-05-06 16:53:00,68.0,52.0,29.91,West,281,3.0,9.0,56,0.00,,,0.00,,2013-05-06 21:53:00,
2013-05-06 17:03:00,67.0,50.0,29.91,West,266,3.0,10.0,54,0.00,,,0.00,,2013-05-06 22:03:00,
2013-05-06 17:12:00,67.0,50.0,29.91,West,266,3.0,10.0,54,0.00,,,0.00,,2013-05-06 22:12:00,
2013-05-06 17:22:00,67.0,50.0,29.91,West,266,3.0,5.0,55,0.00,,,0.00,,2013-05-06 22:22:00,
2013-05-06 17:33:00,67.0,51.0,29.91,SW,236,0.0,5.0,57,0.00,,,0.00,,2013-05-06 22:33:00,
2013-05-06 17:45:00,67.0,51.0,29.91,SW,236,0.0,5.0,57,0.00,,,0.00,,2013-05-06 22:45:00,
2013-05-06 17:52:00,67.0,51.0,29.91,WSW,238,1.0,6.0,56,0.00,,,0.00,,2013-05-06 22:52:00,
2013-05-06 18:03:00,67.0,51.0,29.91,West,273,1.0,4.0,57,0.00,,,0.00,,2013-05-06 23:03:00,
2013-05-06 18:12:00,67.0,51.0,29.91,West,273,1.0,4.0,57,0.00,,,0.00,,2013-05-06 23:12:00,
2013-05-06 18:22:00,67.0,51.0,29.91,West,273,1.0,5.0,57,0.00,,,0.00,,2013-05-06 23:22:00,
2013-05-06 18:31:00,67.0,52.0,29.91,SW,232,0.0,7.0,58,0.00,,,0.00,,2013-05-06 23:31:00,
2013-05-06 18:41:00,67.0,52.0,29.91,SW,232,0.0,7.0,58,0.00,,,0.00,,2013-05-06 23:41:00,
2013-05-06 18:52:00,67.0,52.0,29.91,WSW,253,0.0,5.0,58,0.00,,,0.00,,2013-05-06 23:52:00,
2013-05-06 19:01:00,67.0,52.0,29.91,WSW,250,0.0,6.0,59,0.00,,,0.00,,2013-05-07 00:01:00,
2013-05-06 19:11:00,67.0,52.0,29.91,WSW,250,0.0,6.0,59,0.00,,,0.00,,2013-05-07 00:11:00,
2013-05-06 19:21:00,67.0,52.0,29.91,WSW,257,2.0,6.0,59,0.00,,,0.00,,2013-05-07 00:21:00,
2013-05-06 19:31:00,67.0,53.0,29.92,WNW,300,1.0,4.0,60,0.00,,,0.00,,2013-05-07 00:31:00,
2013-05-06 19:41:00,67.0,53.0,29.92,WNW,300,1.0,4.0,60,0.00,,,0.00,,2013-05-07 00:41:00,
2013-05-06 19:51:00,67.0,53.0,29.92,WSW,241,1.0,3.0,60,0.00,,,0.00,,2013-05-07 00:51:00,
2013-05-06 20:01:00,66.0,53.0,29.93,SW,221,0.0,1.0,62,0.00,,,0.00,,2013-05-07 01:01:00,
2013-05-06 20:11:00,66.0,53.0,29.93,SW,221,0.0,1.0,62,0.00,,,0.00,,2013-05-07 01:11:00,
2013-05-06 20:21:00,66.0,53.0,29.93,SW,221,0.0,1.0,64,0.00,,,0.00,,2013-05-07 01:21:00,
2013-05-06 20:32:00,65.0,53.0,29.94,SW,221,0.0,0.0,65,0.00,,,0.00,,2013-05-07 01:32:00,
2013-05-06 20:42:00,65.0,53.0,29.94,SW,221,0.0,0.0,65,0.00,,,0.00,,2013-05-07 01:42:00,
2013-05-06 20:52:00,65.0,53.0,29.94,SW,221,0.0,0.0,66,0.00,,,0.00,,2013-05-07 01:52:00,
2013-05-06 21:02:00,64.0,54.0,29.95,SW,221,0.0,0.0,69,0.00,,,0.00,,2013-05-07 02:02:00,
2013-05-06 21:11:00,64.0,54.0,29.95,SW,221,0.0,0.0,69,0.00,,,0.00,,2013-05-07 02:11:00,
2013-05-06 21:21:00,64.0,54.0,29.95,SW,221,0.0,0.0,69,0.00,,,0.00,,2013-05-07 02:21:00,
2013-05-06 21:31:00,63.0,54.0,29.96,SW,221,0.0,0.0,73,0.00,,,0.00,,2013-05-07 02:31:00,
2013-05-06 21:41:00,63.0,54.0,29.96,SW,221,0.0,0.0,73,0.00,,,0.00,,2013-05-07 02:41:00,
2013-05-06 21:52:00,62.0,54.0,29.96,SW,221,0.0,0.0,74,0.00,,,0.00,,2013-05-07 02:52:00,
2013-05-06 22:01:00,60.0,53.0,29.97,SW,221,0.0,0.0,79,0.00,,,0.00,,2013-05-07 03:01:00,
2013-05-06 22:11:00,60.0,53.0,29.97,SW,221,0.0,0.0,79,0.00,,,0.00,,2013-05-07 03:11:00,
2013-05-06 22:21:00,60.0,54.0,29.97,SW,221,0.0,0.0,80,0.00,,,0.00,,2013-05-07 03:21:00,
2013-05-06 22:32:00,60.0,54.0,29.98,SW,221,0.0,0.0,81,0.00,,,0.00,,2013-05-07 03:32:00,
2013-05-06 22:42:00,60.0,54.0,29.98,SW,221,0.0,0.0,81,0.00,,,0.00,,2013-05-07 03:42:00,
2013-05-06 22:53:00,59.0,53.0,29.98,SW,221,0.0,0.0,81,0.00,,,0.00,,2013-05-07 03:53:00,
2013-05-06 23:02:00,58.0,53.0,29.97,SW,221,0.0,0.0,84,0.00,,,0.00,,2013-05-07 04:02:00,
2013-05-06 23:12:00,58.0,53.0,29.97,SW,221,0.0,0.0,84,0.00,,,0.00,,2013-05-07 04:12:00,
2013-05-06 23:23:00,58.0,54.0,29.97,SW,221,0.0,0.0,85,0.00,,,0.00,,2013-05-07 04:23:00,
2013-05-06 23:33:00,57.0,53.0,29.97,SW,221,0.0,0.0,88,0.00,,,0.00,,2013-05-07 04:33:00,
2013-05-06 23:42:00,57.0,53.0,29.97,SW,221,0.0,0.0,88,0.00,,,0.00,,2013-05-07 04:42:00,
2013-05-06 23:52:00,56.0,52.0,29.97,SW,221,0.0,0.0,88,0.00,,,0.00,,2013-05-07 04:52:00,